• în România
  • Lista ţărilor
  • Pe 7 zile
  • Temperatura apei
  • Hartă satelitară
  • Meteo pe hartă
  • Widget-uri
  • user-avatar
    Intrare

    Meteo pe oră la Mahdia

    Astăzi, 20 Septembrie, Joi

    Timp Temperatura Precipitaţii Vânt Presiune Umiditate
    00:00 +30°C° 0.3 mm 5 m/s 763 mmHg 67%
    01:00 +29°C° 0 mm 3 m/s 763 mmHg 67%
    02:00 +29°C° 0.7 mm 3 m/s 763 mmHg 67%
    03:00 +29°C° 0.7 mm 3 m/s 762 mmHg 66%
    04:00 +29°C° 0.7 mm 3 m/s 762 mmHg 65%
    05:00 +29°C° 0.2 mm 2 m/s 762 mmHg 65%
    06:00 +29°C° 0.2 mm 2 m/s 762 mmHg 65%
    07:00 +29°C° 0 mm 2 m/s 763 mmHg 64%
    08:00 +29°C° 0.2 mm 2 m/s 763 mmHg 61%
    09:00 +30°C° 0.2 mm 1 m/s 763 mmHg 58%
    10:00 +30°C° 0.2 mm 1 m/s 763 mmHg 55%
    11:00 +31°C° 0 mm 1 m/s 762 mmHg 51%
    12:00 +32°C° 0 mm 2 m/s 762 mmHg 48%
    13:00 +34°C° 0 mm 2 m/s 762 mmHg 45%
    14:00 +34°C° 0.1 mm 3 m/s 762 mmHg 46%
    15:00 +34°C° 0.1 mm 4 m/s 761 mmHg 48%
    16:00 +33°C° 0.1 mm 4 m/s 761 mmHg 49%
    17:00 +32°C° 2.1 mm 4 m/s 761 mmHg 55%
    18:00 +30°C° 2.1 mm 4 m/s 761 mmHg 60%
    19:00 +28°C° 2.1 mm 4 m/s 761 mmHg 66%
    20:00 +28°C° 2.7 mm 4 m/s 761 mmHg 68%
    21:00 +28°C° 2.7 mm 4 m/s 762 mmHg 69%
    22:00 +28°C° 2.7 mm 4 m/s 762 mmHg 70%
    23:00 +28°C° 1.1 mm 3 m/s 762 mmHg 70%

    Mâine, 21 Septembrie, Vineri

    Timp Temperatura Precipitaţii Vânt Presiune Umiditate
    00:00 +27°C° 1.1 mm 3 m/s 762 mmHg 70%
    01:00 +27°C° 1.1 mm 3 m/s 762 mmHg 70%
    02:00 +27°C° 0.6 mm 2 m/s 761 mmHg 71%
    03:00 +27°C° 0.6 mm 2 m/s 761 mmHg 71%
    04:00 +27°C° 0.6 mm 2 m/s 761 mmHg 71%
    05:00 +27°C° 0 mm 2 m/s 761 mmHg 70%
    06:00 +27°C° 0 mm 1 m/s 761 mmHg 69%
    07:00 +27°C° 0 mm 1 m/s 761 mmHg 67%
    08:00 +28°C° 0 mm 1 m/s 761 mmHg 63%
    09:00 +29°C° 0 mm 1 m/s 762 mmHg 59%
    10:00 +30°C° 0 mm 1 m/s 762 mmHg 55%
    11:00 +30°C° 0 mm 1 m/s 762 mmHg 53%
    12:00 +31°C° 0 mm 1 m/s 762 mmHg 50%
    13:00 +31°C° 0 mm 2 m/s 762 mmHg 48%
    14:00 +31°C° 0 mm 2 m/s 761 mmHg 49%
    15:00 +31°C° 0 mm 3 m/s 761 mmHg 49%
    16:00 +31°C° 0 mm 3 m/s 761 mmHg 50%
    17:00 +32°C° 0.1 mm 4 m/s 761 mmHg 55%
    18:00 +30°C° 0.1 mm 4 m/s 761 mmHg 59%
    19:00 +29°C° 0.1 mm 4 m/s 761 mmHg 64%
    20:00 +29°C° 0.2 mm 4 m/s 762 mmHg 64%
    21:00 +29°C° 0.2 mm 3 m/s 762 mmHg 64%
    22:00 +29°C° 0.2 mm 3 m/s 762 mmHg 65%
    23:00 +29°C° 0.7 mm 3 m/s 763 mmHg 63%

    Poimâine, 22 Septembrie, Sâmbătă

    Timp Temperatura Precipitaţii Vânt Presiune Umiditate
    00:00 +29°C° 0.7 mm 3 m/s 763 mmHg 62%
    01:00 +29°C° 0.7 mm 3 m/s 763 mmHg 61%
    02:00 +28°C° 0 mm 3 m/s 763 mmHg 61%
    03:00 +28°C° 0 mm 4 m/s 763 mmHg 61%
    04:00 +28°C° 0 mm 4 m/s 762 mmHg 62%
    05:00 +28°C° 0.1 mm 4 m/s 763 mmHg 62%
    06:00 +28°C° 0.1 mm 5 m/s 763 mmHg 62%
    07:00 +28°C° 0.1 mm 5 m/s 763 mmHg 62%
    08:00 +28°C° 0.3 mm 5 m/s 763 mmHg 60%
    09:00 +29°C° 0.3 mm 5 m/s 764 mmHg 58%
    10:00 +30°C° 0.3 mm 5 m/s 764 mmHg 56%
    11:00 +30°C° 0.3 mm 5 m/s 764 mmHg 54%
    12:00 +32°C° 0.3 mm 4 m/s 764 mmHg 52%
    13:00 +32°C° 0.3 mm 4 m/s 764 mmHg 50%
    14:00 +32°C° 0.2 mm 4 m/s 764 mmHg 50%
    15:00 +32°C° 0.2 mm 4 m/s 764 mmHg 51%
    16:00 +32°C° 0.2 mm 4 m/s 763 mmHg 51%
    17:00 +30°C° 0.7 mm 4 m/s 764 mmHg 55%
    18:00 +30°C° 0.7 mm 4 m/s 764 mmHg 58%
    19:00 +29°C° 0.7 mm 5 m/s 764 mmHg 62%
    20:00 +29°C° 0.4 mm 5 m/s 765 mmHg 63%
    21:00 +29°C° 0.4 mm 5 m/s 765 mmHg 63%
    22:00 +29°C° 0.4 mm 5 m/s 766 mmHg 64%
    23:00 +28°C° 0.1 mm 5 m/s 766 mmHg 65%

    23 Septembrie, Duminică

    Timp Temperatura Precipitaţii Vânt Presiune Umiditate
    00:00 +28°C° 0.1 mm 5 m/s 766 mmHg 67%
    01:00 +28°C° 0.1 mm 5 m/s 766 mmHg 68%
    02:00 +28°C° 0.2 mm 5 m/s 765 mmHg 69%
    03:00 +27°C° 0.2 mm 5 m/s 765 mmHg 70%
    04:00 +27°C° 0.2 mm 5 m/s 765 mmHg 71%
    05:00 +27°C° 0.2 mm 5 m/s 765 mmHg 71%
    06:00 +27°C° 0.2 mm 5 m/s 765 mmHg 71%
    07:00 +27°C° 0.2 mm 5 m/s 765 mmHg 71%
    08:00 +28°C° 0.2 mm 5 m/s 766 mmHg 67%
    09:00 +29°C° 0.2 mm 5 m/s 766 mmHg 63%
    10:00 +29°C° 0.2 mm 5 m/s 766 mmHg 59%
    11:00 +30°C° 0 mm 5 m/s 766 mmHg 56%
    12:00 +30°C° 0 mm 4 m/s 766 mmHg 54%
    13:00 +32°C° 0 mm 4 m/s 766 mmHg 51%
    14:00 +32°C° 0 mm 4 m/s 765 mmHg 51%
    15:00 +32°C° 0 mm 4 m/s 765 mmHg 51%
    16:00 +32°C° 0 mm 4 m/s 765 mmHg 51%
    17:00 +30°C° 0 mm 3 m/s 765 mmHg 54%
    18:00 +30°C° 0 mm 3 m/s 765 mmHg 57%
    19:00 +29°C° 0 mm 3 m/s 765 mmHg 60%
    20:00 +29°C° 0 mm 2 m/s 765 mmHg 61%
    21:00 +29°C° 0 mm 2 m/s 766 mmHg 63%
    22:00 +28°C° 0 mm 2 m/s 766 mmHg 65%
    23:00 +28°C° 0 mm 1 m/s 766 mmHg 66%

    24 Septembrie, Luni

    Timp Temperatura Precipitaţii Vânt Presiune Umiditate
    00:00 +28°C° 0 mm 1 m/s 765 mmHg 67%
    01:00 +28°C° 0 mm 1 m/s 765 mmHg 68%
    02:00 +28°C° 0 mm 1 m/s 765 mmHg 68%
    03:00 +27°C° 0 mm 2 m/s 764 mmHg 69%
    04:00 +27°C° 0 mm 2 m/s 764 mmHg 70%
    05:00 +27°C° 0 mm 2 m/s 764 mmHg 69%
    06:00 +27°C° 0 mm 3 m/s 764 mmHg 69%
    07:00 +27°C° 0 mm 3 m/s 764 mmHg 69%
    08:00 +28°C° 0 mm 3 m/s 764 mmHg 65%
    09:00 +28°C° 0 mm 3 m/s 764 mmHg 62%
    10:00 +29°C° 0 mm 3 m/s 765 mmHg 58%
    11:00 +30°C° 0 mm 3 m/s 764 mmHg 53%
    12:00 +31°C° 0 mm 3 m/s 764 mmHg 48%
    13:00 +33°C° 0 mm 3 m/s 764 mmHg 43%
    14:00 +33°C° 0 mm 3 m/s 763 mmHg 41%
    15:00 +33°C° 0 mm 3 m/s 763 mmHg 40%
    16:00 +33°C° 0 mm 3 m/s 763 mmHg 38%
    17:00 +33°C° 0 mm 3 m/s 763 mmHg 42%
    18:00 +31°C° 0 mm 3 m/s 763 mmHg 46%
    19:00 +30°C° 0 mm 3 m/s 763 mmHg 50%
    20:00 +30°C° 0 mm 3 m/s 763 mmHg 53%
    21:00 +29°C° 0 mm 3 m/s 764 mmHg 56%
    22:00 +29°C° 0 mm 3 m/s 764 mmHg 60%
    23:00 +29°C° 0 mm 4 m/s 764 mmHg 60%

    25 Septembrie, Marţi

    Timp Temperatura Precipitaţii Vânt Presiune Umiditate
    00:00 +29°C° 0 mm 4 m/s 764 mmHg 60%
    01:00 +28°C° 0 mm 5 m/s 764 mmHg 61%
    02:00 +28°C° 0 mm 5 m/s 764 mmHg 61%
    03:00 +28°C° 0 mm 6 m/s 763 mmHg 62%
    04:00 +27°C° 0 mm 6 m/s 763 mmHg 63%
    05:00 +27°C° 0 mm 7 m/s 764 mmHg 63%
    06:00 +27°C° 0 mm 7 m/s 764 mmHg 64%
    07:00 +27°C° 0 mm 8 m/s 764 mmHg 64%
    08:00 +28°C° 0 mm 7 m/s 764 mmHg 61%
    09:00 +29°C° 0 mm 7 m/s 764 mmHg 57%
    10:00 +29°C° 0 mm 7 m/s 765 mmHg 53%
    11:00 +30°C° 0 mm 7 m/s 764 mmHg 50%
    12:00 +32°C° 0 mm 6 m/s 764 mmHg 47%
    13:00 +33°C° 0 mm 6 m/s 764 mmHg 43%
    14:00 +33°C° 0 mm 6 m/s 764 mmHg 43%
    15:00 +33°C° 0 mm 6 m/s 764 mmHg 43%
    16:00 +33°C° 0 mm 6 m/s 763 mmHg 43%
    17:00 +32°C° 0 mm 7 m/s 764 mmHg 47%
    18:00 +30°C° 0 mm 7 m/s 764 mmHg 50%
    19:00 +29°C° 0 mm 7 m/s 764 mmHg 54%
    20:00 +29°C° 0 mm 7 m/s 765 mmHg 54%
    21:00 +28°C° 0 mm 6 m/s 765 mmHg 55%
    22:00 +28°C° 0 mm 6 m/s 765 mmHg 56%
    23:00 +28°C° 0 mm 5 m/s 765 mmHg 57%
    Arată mai mult